303,2013-06-30 13:47:10,1372600030,55.4245,-10.73997,143,6,2013-06-30 13:47:00,1372600020,13.48,0,11,8,0,55.413,-9.96299999999999,0,36
304,2013-06-30 13:52:27,1372600347,55.56795,-12.79021,190,2,2013-06-30 13:52:00,1372600320,13.48,0,11,10,0,55.4144,-9.97620000000001,0,32
305,2013-06-30 13:57:15,1372600635,55.66821,-15.33328,351,2,2013-06-30 13:57:00,1372600620,13.48,0,11,26,0,55.4156,-9.99199999999999,0,32
306,2013-06-30 14:07:41,1372601261,55.42497,-10.0336,9,2,2013-06-30 14:07:00,1372601220,13.36,0,11,151,0,55.4158,-10.0174,0,28
307,2013-06-30 14:10:21,1372601421,55.40098,-9.96044,2,2,2013-06-30 14:10:00,1372601400,13.28,0,11,41,0,55.4128,-10.005,0,28
308,2013-06-30 14:20:21,1372602021,55.40607,-9.89826,1,2,2013-06-30 14:20:00,1372602000,13.6,0,11,12,0,55.4052,-9.96359999999999,0,28
309,2013-06-30 14:30:20,1372602620,55.35654,-9.88742,1,2,2013-06-30 14:30:00,1372602600,13.56,0,11,10,0,55.4002,-9.9288,0,32
310,2013-06-30 14:40:17,1372603217,55.35654,-9.88742,2,2,2013-06-30 14:40:00,1372603200,13.6,0,11,11,0,55.3982,-9.893,0,24
311,2013-06-30 14:50:20,1372603820,55.40607,-9.89826,3,2,2013-06-30 14:50:00,1372603800,13.72,0,11,7,0,55.4028,-9.88919999999999,0,36
312,2013-06-30 15:00:20,1372604420,55.40098,-9.96044,2,2,2013-06-30 15:00:00,1372604400,13.72,0,11,9,0,55.4058,-9.9068,0,36
313,2013-06-30 15:10:21,1372605021,55.40098,-9.96044,1,2,2013-06-30 15:10:00,1372605000,13.56,0,11,10,0,55.4078,-9.93019999999999,0,24
316,2013-06-30 15:18:44,1372605524,55.42497,-10.0336,2,2,2013-06-30 15:18:00,1372605480,13.24,0,11,11,0,55.4106,-9.9546,0,32
317,2013-06-30 15:23:44,1372605824,55.38057,-9.96044,10,2,2013-06-30 15:23:00,1372605780,13.16,0,11,11,0,55.4152,-9.96359999999999,0,36
318,2013-06-30 15:28:45,1372606125,55.42497,-10.0336,2,2,2013-06-30 15:28:00,1372606080,13.12,0,11,12,0,55.419,-9.97279999999998,0,32
319,2013-06-30 15:34:58,1372606498,55.45049,-9.97137,22,2,2013-06-30 15:33:00,1372606380,13.12,0,11,12,0,55.4224,-9.98179999999999,0,36
320,2013-06-30 15:38:44,1372606724,55.334,-7.39878,174,3,2013-06-30 15:38:00,1372606680,13.04,0,11,86,0,55.4258,-9.99119999999999,0,40
321,2013-06-30 15:40:20,1372606820,55.42497,-10.0336,10,2,2013-06-30 15:40:00,1372606800,12.96,0,11,11,0,55.4268,-9.99359999999999,0,44
322,2013-06-30 15:50:20,1372607420,55.4146,-10.15798,419,2,2013-06-30 15:50:00,1372607400,13.04,0,11,11,0,55.4332,-10.0108,0,36
323,2013-06-30 16:00:21,1372608021,55.69099,-15.07085,336,2,2013-06-30 16:00:00,1372608000,13.16,0,11,12,0,55.4394,-10.0236,0,36
324,2013-06-30 16:10:20,1372608620,55.8051,-15.059,335,2,2013-06-30 16:10:00,1372608600,13.24,0,11,13,0,55.4448,-10.0358,0,40
325,2013-06-30 16:20:30,1372609230,55.4198,-10.0958,2,2,2013-06-30 16:20:00,1372609200,13.16,0,11,12,0,55.4484,-10.048,0,32
326,2013-06-30 16:30:20,1372609820,55.4198,-10.0958,2,2,2013-06-30 16:30:00,1372609800,12.96,0,11,20,0,55.4544,-10.0618,0,40
327,2013-06-30 16:40:21,1372610421,55.47448,-10.04462,3,2,2013-06-30 16:40:00,1372610400,13.04,0,11,10,0,55.457,-10.073,0,32
328,2013-06-30 16:50:21,1372611021,55.47448,-10.04462,2,2,2013-06-30 16:50:00,1372611000,12.08,0,11,12,0,55.458,-10.0728,0,36
329,2013-06-30 17:00:22,1372611622,55.42497,-10.0336,2,2,2013-06-30 17:00:00,1372611600,11.48,0,11,11,0,55.4428,-10.0342,0,36
330,2013-06-30 17:10:25,1372612225,55.40098,-9.96044,2,3,2013-06-30 17:10:00,1372612200,11.72,0,11,12,0,55.4278,-9.99599999999998,0,36
331,2013-06-30 17:20:22,1372612822,55.38057,-9.96044,2,2,2013-06-30 17:20:00,1372612800,11.4,0,11,16,0,55.4124,-9.95820000000001,0,40
332,2013-06-30 17:30:20,1372613420,55.43522,-9.90912,7,2,2013-06-30 17:30:00,1372613400,11.52,0,11,12,0,55.3968,-9.92140000000001,0,44
333,2013-06-30 17:40:18,1372614018,55.40098,-9.96044,7,2,2013-06-30 17:40:00,1372614000,11.48,0,11,9,0,55.3816,-9.8836,0,48
334,2013-06-30 17:50:21,1372614621,55.36214,-9.44158,72,2,2013-06-30 17:50:00,1372614600,11.48,0,11,8,0,55.3666,-9.8458,0,40
335,2013-06-30 18:00:20,1372615220,55.41416,-11.18608,110,2,2013-06-30 18:00:00,1372615200,11.6,0,11,10,0,55.3514,-9.80879999999999,0,36
336,2013-06-30 18:10:21,1372615821,55.55379,-13.83623,265,559,2013-06-30 18:10:00,1372615800,11.64,0,11,10,0,55.3364,-9.77099999999999,0,36
337,2013-06-30 18:20:19,1372616419,55.29292,-9.6797,3,9,2013-06-30 18:20:00,1372616400,11.72,0,11,11,0,55.3214,-9.7336,0,36
338,2013-06-30 18:30:21,1372617021,55.34249,-9.6903,3,1,2013-06-30 18:30:00,1372617000,10.76,0,11,8,0,55.306,-9.6962,0,40
339,2013-06-30 18:40:21,1372617621,55.29292,-9.6797,2,1,2013-06-30 18:40:00,1372617600,11.2,0,11,10,0,55.2904,-9.65899999999999,0,40
340,2013-06-30 18:50:20,1372618220,55.29292,-9.6797,2,2,2013-06-30 18:50:00,1372618200,11.48,0,11,10,0,55.2792,-9.65199999999999,0,40
341,2013-06-30 19:00:37,1372618837,55.29787,-9.61762,5,3,2013-06-30 19:00:00,1372618800,11.4,0,11,10,0,55.2798,-9.66759999999999,0,44
342,2013-06-30 19:10:21,1372619421,55.28794,-9.74176,2,2,2013-06-30 19:10:00,1372619400,11.2,0,11,27,0,55.2864,-9.68119999999999,0,52
343,2013-06-30 19:20:21,1372620021,55.28794,-9.74176,3,1,2013-06-30 19:20:00,1372620000,11.6,0,11,11,0,55.2922,-9.6908,0,52
344,2013-06-30 19:30:18,1372620618,55.29292,-9.6797,3,1,2013-06-30 19:30:00,1372620600,11.84,0,11,10,0,55.297,-9.70319999999998,0,56
347,2013-07-07 09:40:43,1373190043,55.40607,-9.89826,3,2,2013-07-07 09:39:00,1373189940,14,0,11,11,0,55.4444,-9.9196,0,36
348,2013-07-07 09:44:53,1373190293,55.43522,-9.90912,3,2,2013-07-07 09:44:00,1373190240,13.84,0,11,58,0,55.4302,-9.9212,0,36
349,2013-07-07 09:55:19,1373190919,55.38057,-9.96044,2,2,2013-07-07 09:54:00,1373190840,13.8,0,11,138,0,55.4014,-9.9246,0,40
350,2013-07-07 10:00:29,1373191229,55.35654,-9.88742,2,2,2013-07-07 09:59:00,1373191140,13.84,0,11,35,0,55.3872,-9.92659999999998,0,40
351,2013-07-07 10:10:20,1373191820,55.35145,-9.94954,10,1,2013-07-07 10:10:00,1373191800,13.92,0,11,44,0,55.3574,-9.93099999999998,0,36
352,2013-07-07 10:21:17,1373192477,55.35654,-9.88742,3,1,2013-07-07 10:20:00,1373192400,14.04,0,11,10,0,55.3296,-9.93519999999998,0,28
353,2013-07-07 10:30:20,1373193020,55.29679,-10.00068,9,1,2013-07-07 10:30:00,1373193000,14.16,0,11,67,0,55.3018,-9.9402,0,36
354,2013-07-07 10:40:20,1373193620,55.43008,-6.96826,203,1,2013-07-07 10:40:00,1373193600,14.16,0,11,10,0,55.2742,-9.9444,0,36
355,2013-07-07 10:50:18,1373194218,55.25808,-9.48301,76,2,2013-07-07 10:50:00,1373194200,14.12,0,11,10,0,55.2468,-9.947,0,32
356,2013-07-07 11:00:23,1373194823,55.13571,-12.07285,152,1,2013-07-07 11:00:00,1373194800,14.12,0,11,8,0,55.2192,-9.9478,0,32
357,2013-07-07 11:10:19,1373195419,55.11644,-14.26451,282,1,2013-07-07 11:10:00,1373195400,14.16,0,11,13,0,55.1968,-9.94819999999999,0,32
358,2013-07-07 11:20:23,1373196023,55.22326,-9.91696,3,1,2013-07-07 11:20:00,1373196000,14.36,0,11,9,0,55.1932,-9.94839999999999,0,32
359,2013-07-07 11:30:20,1373196620,55.1686,-9.96798,2,1,2013-07-07 11:30:00,1373196600,14.6,0,11,13,0,55.192,-9.94899999999998,0,36
360,2013-07-07 11:42:02,1373197322,55.1686,-9.96798,8,2,2013-07-07 11:40:00,1373197200,14.92,0,11,10,0,55.1914,-9.94919999999999,0,36
361,2013-07-07 11:50:20,1373197820,55.1686,-9.96798,3,1,2013-07-07 11:50:00,1373197800,15.04,0,11,114,0,55.1908,-9.9494,0,44
362,2013-07-07 12:00:20,1373198420,55.1686,-9.96798,4,2,2013-07-07 12:00:00,1373198400,15.24,0,11,10,0,55.1904,-9.9496,0,36
363,2013-07-07 12:10:20,1373199020,55.1686,-9.96798,6,1,2013-07-07 12:10:00,1373199000,15.6,0,11,16,0,55.1898,-9.94999999999999,0,36
364,2013-07-07 12:21:12,1373199672,55.22326,-9.91696,7,3,2013-07-07 12:20:00,1373199600,15.92,0,11,10,0,55.1884,-9.95079999999999,0,36
365,2013-07-07 12:30:30,1373200230,55.22326,-9.91696,8,0,2013-07-07 12:30:00,1373200200,16.48,0,11,64,0,55.1874,-9.95159999999998,0,40
366,2013-07-07 12:40:37,1373200837,55.17369,-9.90615,3,0,2013-07-07 12:40:00,1373200800,16.8,0,11,20,0,55.1866,-9.9522,0,40
367,2013-07-07 12:50:19,1373201419,55.21303,-10.04073,8,1,2013-07-07 12:50:00,1373201400,17,0,11,27,0,55.1856,-9.9528,0,40
368,2013-07-07 13:00:20,1373202020,55.16958,-9.58616,67,1,2013-07-07 13:00:00,1373202000,16.92,0,11,10,0,55.1844,-9.9538,0,40
369,2013-07-07 13:10:19,1373202619,55.25287,-11.91458,141,1,2013-07-07 13:10:00,1373202600,17,0,11,11,0,55.1832,-9.9546,0,40
370,2013-07-07 13:20:20,1373203220,55.43396,-14.25101,283,1,2013-07-07 13:20:00,1373203200,16.68,0,11,10,0,55.1824,-9.95519999999999,0,32
371,2013-07-07 13:31:46,1373203906,55.21816,-9.97886,3,0,2013-07-07 13:30:00,1373203800,16.48,0,11,11,0,55.1816,-9.9556,0,32
372,2013-07-07 13:40:20,1373204420,55.21816,-9.97886,4,1,2013-07-07 13:40:00,1373204400,16.56,0,11,97,0,55.1814,-9.9556,0,28
373,2013-07-07 13:50:18,1373205018,55.1686,-9.96798,3,1,2013-07-07 13:50:00,1373205000,16.92,0,11,11,0,55.1814,-9.9556,0,28
374,2013-07-07 14:00:21,1373205621,55.1686,-9.96798,2,1,2013-07-07 14:00:00,1373205600,16.88,0,11,9,0,55.1814,-9.9556,0,28
375,2013-07-07 14:10:19,1373206219,55.1686,-9.96798,2,1,2013-07-07 14:10:00,1373206200,16.92,0,11,11,0,55.1816,-9.9502,0,28
376,2013-07-07 14:20:22,1373206822,55.1686,-9.96798,2,1,2013-07-07 14:20:00,1373206800,17.12,0,11,9,0,55.19,-9.93340000000001,0,32
377,2013-07-07 14:30:21,1373207421,55.1942,-9.90615,4,0,2013-07-07 14:30:00,1373207400,16.8,0,11,14,0,55.1924,-9.9222,0,36
378,2013-07-07 14:40:21,1373208021,55.1942,-9.90615,3,1,2013-07-07 14:40:00,1373208000,16.68,0,11,11,0,55.1918,-9.92339999999999,0,36
379,2013-07-07 14:50:22,1373208622,55.17369,-9.90615,13,2,2013-07-07 14:50:00,1373208600,16.64,0,11,11,0,55.1922,-9.9254,0,32
380,2013-07-07 15:00:20,1373209220,55.21426,-9.2764,80,1,2013-07-07 15:00:00,1373209200,16.56,0,11,12,0,55.1926,-9.92759999999998,0,36
381,2013-07-07 15:10:21,1373209821,55.19766,-9.97886,3,1,2013-07-07 15:10:00,1373209800,16.56,0,11,10,0,55.1932,-9.92999999999998,0,44
382,2013-07-07 15:20:31,1373210431,55.22326,-9.91696,9,1,2013-07-07 15:20:00,1373210400,16.64,0,11,10,0,55.1936,-9.9324,0,40
383,2013-07-07 15:30:18,1373211018,55.22326,-9.91696,4,0,2013-07-07 15:30:00,1373211000,16.56,0,11,22,0,55.194,-9.93439999999998,0,40
384,2013-07-07 15:40:28,1373211628,55.1942,-9.90615,2,1,2013-07-07 15:40:00,1373211600,16.64,0,11,7,0,55.1946,-9.93680000000001,0,36
385,2013-07-07 15:50:21,1373212221,55.1686,-9.96798,5,1,2013-07-07 15:50:00,1373212200,16.48,0,11,18,0,55.1952,-9.93899999999999,0,32
386,2013-07-07 16:00:20,1373212820,55.17369,-9.90615,1,1,2013-07-07 16:00:00,1373212800,16.32,0,11,11,0,55.1958,-9.94119999999998,0,44
387,2013-07-07 16:10:22,1373213422,55.17369,-9.90615,2,0,2013-07-07 16:10:00,1373213400,16.32,0,11,10,0,55.1964,-9.94319999999999,0,44
388,2013-07-07 16:20:20,1373214020,55.21816,-9.97886,4,0,2013-07-07 16:20:00,1373214000,16.24,0,11,11,0,55.197,-9.94559999999998,0,36
389,2013-07-07 16:30:17,1373214617,55.21816,-9.97886,3,1,2013-07-07 16:30:00,1373214600,16.04,0,11,9,0,55.1978,-9.94759999999999,0,36
390,2013-07-07 16:40:22,1373215222,55.21816,-9.97886,2,1,2013-07-07 16:40:00,1373215200,16.04,0,11,7,0,55.1982,-9.94979999999998,0,36
391,2013-07-07 16:50:20,1373215820,55.21816,-9.97886,2,1,2013-07-07 16:50:00,1373215800,15.92,0,11,12,0,55.2032,-9.92919999999998,0,48
392,2013-07-07 17:00:36,1373216436,55.19253,-10.04073,4,1,2013-07-07 17:00:00,1373216400,15.92,0,11,10,0,55.2052,-9.90979999999999,0,44
393,2013-07-07 17:10:21,1373217021,55.1686,-9.96798,16,1,2013-07-07 17:10:00,1373217000,17.36,0,11,26,0,55.2044,-9.90779999999998,0,48
394,2013-07-07 17:20:21,1373217621,55.24256,-11.07557,108,1,2013-07-07 17:20:00,1373217600,18.68,0,11,11,0,55.203,-9.90879999999999,0,40
395,2013-07-07 17:30:21,1373218221,55.365,-12.98043,212,0,2013-07-07 17:30:00,1373218200,18.88,0,11,11,0,55.2016,-9.90959999999998,0,44
396,2013-07-07 17:40:36,1373218836,55.21816,-9.97886,3,1,2013-07-07 17:40:00,1373218800,19.88,0,11,10,0,55.2014,-9.90979999999999,0,36
397,2013-07-07 17:51:25,1373219485,55.22326,-9.91696,5,1,2013-07-07 17:50:00,1373219400,20.88,0,11,26,0,55.2016,-9.91079999999999,0,36
398,2013-07-07 18:00:22,1373220022,55.1686,-9.96798,2,1,2013-07-07 18:00:00,1373220000,21.04,0,11,78,0,55.2006,-9.91159999999999,0,40
399,2013-07-07 18:10:19,1373220619,55.17369,-9.90615,3,1,2013-07-07 18:10:00,1373220600,20.88,0,11,12,0,55.1994,-9.9126,0,44
400,2013-07-07 18:20:21,1373221221,55.17369,-9.90615,4,0,2013-07-07 18:20:00,1373221200,19.44,0,11,9,0,55.198,-9.91319999999999,0,44
401,2013-07-07 18:30:22,1373221822,55.17875,-9.84429,2,0,2013-07-07 18:30:00,1373221800,18.4,0,11,11,0,55.1968,-9.91399999999999,0,48
402,2013-07-07 18:40:21,1373222421,55.17875,-9.84429,2,3,2013-07-07 18:40:00,1373222400,16.92,0,11,11,0,55.1966,-9.9144,0,52
403,2013-07-07 18:50:22,1373223022,55.22326,-9.91696,10,0,2013-07-07 18:50:00,1373223000,15.88,0,11,13,0,55.1972,-9.91659999999999,0,56
404,2013-07-07 19:00:37,1373223637,55.18422,-5.72936,275,1,2013-07-07 19:00:00,1373223600,15.04,0,11,11,0,55.1978,-9.9186,0,48
405,2013-07-07 19:10:31,1373224231,55.17786,-7.81041,149,1,2013-07-07 19:10:00,1373224200,14.72,0,11,27,0,55.1986,-9.92079999999999,0,52
406,2013-07-07 19:20:22,1373224822,55.24498,-10.37236,72,0,2013-07-07 19:20:00,1373224800,14.44,0,11,22,0,55.1992,-9.9228,0,52
407,2013-07-07 19:40:22,1373226022,55.50962,-14.80486,317,0,2013-07-07 19:40:00,1373226000,13.92,0,11,151,0,55.2006,-9.9272,0,48
408,2013-07-07 19:50:19,1373226619,55.17369,-9.90615,3,1,2013-07-07 19:50:00,1373226600,13.84,0,11,13,0,55.2014,-9.92919999999998,0,56
409,2013-07-07 20:00:23,1373227223,55.21816,-9.97886,4,0,2013-07-07 20:00:00,1373227200,13.72,0,11,12,0,55.202,-9.9314,0,56
410,2013-07-07 20:10:20,1373227820,55.21816,-9.97886,3,0,2013-07-07 20:10:00,1373227800,13.48,0,11,13,0,55.2026,-9.93340000000001,0,56
411,2013-07-07 20:20:33,1373228433,55.1686,-9.96798,6,1,2013-07-07 20:20:00,1373228400,13.28,0,11,10,0,55.2034,-9.93559999999999,0,52
412,2013-07-07 20:30:23,1373229023,55.19766,-9.97886,1,0,2013-07-07 20:30:00,1373229000,13.16,0,11,23,0,55.2042,-9.9366,2,44
413,2013-07-07 20:40:17,1373229617,55.19766,-9.97886,2,0,2013-07-07 20:40:00,1373229600,13.16,0,11,13,0,55.2036,-9.93459999999999,0,52
414,2013-07-07 20:50:21,1373230221,55.1686,-9.96798,3,1,2013-07-07 20:50:00,1373230200,13.12,0,11,8,0,55.203,-9.9324,0,52
415,2013-07-07 21:00:18,1373230818,55.1686,-9.96798,6,1,2013-07-07 21:00:00,1373230800,12.96,0,11,12,0,55.2022,-9.93039999999999,0,52
416,2013-07-07 21:10:38,1373231438,55.23861,-9.3486,80,2,2013-07-07 21:10:00,1373231400,13.04,0,11,10,0,55.2016,-9.9282,0,40
417,2013-07-07 21:20:19,1373232019,55.08296,-8.17441,157,5,2013-07-07 21:20:00,1373232000,12.96,0,11,29,0,55.2012,-9.9272,0,40
418,2013-07-07 21:30:21,1373232621,55.32278,-12.32369,176,2,2013-07-07 21:30:00,1373232600,12.92,0,11,11,0,55.2004,-9.92499999999998,0,44
419,2013-07-07 21:40:19,1373233219,55.44063,-14.45053,295,1,2013-07-07 21:40:00,1373233200,12.84,0,11,13,0,55.1998,-9.923,0,48
420,2013-07-07 21:50:30,1373233830,55.22832,-9.85504,4,2,2013-07-07 21:50:00,1373233800,12.84,0,11,10,0,55.199,-9.92079999999999,0,48
421,2013-07-07 22:00:36,1373234436,55.19926,-9.84429,2,2,2013-07-07 22:00:00,1373234400,12.8,0,11,21,0,55.1984,-9.9188,0,36
422,2013-07-07 22:10:35,1373235035,55.17875,-9.84429,1,2,2013-07-07 22:10:00,1373235000,12.8,0,11,28,0,55.1976,-9.91659999999999,0,40
423,2013-07-07 22:20:21,1373235621,55.17875,-9.84429,1,2,2013-07-07 22:20:00,1373235600,12.8,0,11,25,0,55.197,-9.91459999999998,0,40
424,2013-07-07 22:30:20,1373236220,55.17875,-9.84429,2,3,2013-07-07 22:30:00,1373236200,12.84,0,11,11,0,55.1964,-9.91239999999999,0,28
425,2013-07-07 22:40:21,1373236821,55.21816,-9.97886,4,2,2013-07-07 22:40:00,1373236800,12.8,0,11,11,0,55.2096,-9.91839999999999,0,32
426,2013-07-07 22:50:21,1373237421,55.17369,-9.90615,3,2,2013-07-07 22:50:00,1373237400,12.8,0,11,12,0,55.224,-9.93039999999999,0,32
427,2013-07-07 23:00:21,1373238021,55.24723,-9.98976,2,2,2013-07-07 23:00:00,1373238000,12.8,0,11,11,0,55.2236,-9.9288,0,36
428,2013-07-07 23:10:19,1373238619,55.10267,-4.58643,346,2,2013-07-07 23:10:00,1373238600,12.8,0,11,11,0,55.2228,-9.92679999999999,0,32
429,2013-07-07 23:20:19,1373239219,55.21816,-9.97886,4,1,2013-07-07 23:20:00,1373239200,12.8,0,11,10,0,55.2222,-9.9246,0,32
430,2013-07-07 23:30:21,1373239821,55.20787,-10.10259,23,2,2013-07-07 23:30:00,1373239800,12.72,0,11,9,0,55.2214,-9.92239999999998,0,40
431,2013-07-07 23:40:21,1373240421,55.29748,-11.6681,135,2,2013-07-07 23:40:00,1373240400,12.68,0,11,11,0,55.2208,-9.9204,0,40
432,2013-07-07 23:50:45,1373241045,55.54635,-16.48632,432,2,2013-07-07 23:50:00,1373241000,12.68,0,11,11,0,55.2224,-9.9186,0,44
433,2013-07-08 00:00:19,1373241619,55.21816,-9.97886,12,2,2013-07-08 00:00:00,1373241600,12.68,0,11,34,0,55.2232,-9.92059999999998,0,44
434,2013-07-08 00:10:25,1373242225,55.1686,-9.96798,12,2,2013-07-08 00:10:00,1373242200,12.6,0,11,9,0,55.224,-9.92259999999999,0,40
435,2013-07-08 00:20:29,1373242829,55.26876,-9.60711,90,1,2013-07-08 00:20:00,1373242800,12.52,0,11,14,0,55.2248,-9.92439999999999,0,40
436,2013-07-08 00:30:22,1373243422,55.19738,-11.96309,154,2,2013-07-08 00:30:00,1373243400,12.4,0,11,18,0,55.2254,-9.9256,0,44
437,2013-07-08 00:40:22,1373244022,55.22832,-9.85504,3,1,2013-07-08 00:40:00,1373244000,12.36,0,11,11,0,55.2264,-9.928,0,44
438,2013-07-08 00:50:22,1373244622,55.22832,-9.85504,2,2,2013-07-08 00:50:00,1373244600,12.36,0,11,10,0,55.2274,-9.9306,0,48
439,2013-07-08 01:00:20,1373245220,55.21816,-9.97886,2,1,2013-07-08 01:00:00,1373245200,12.24,0,11,11,0,55.2316,-9.92759999999998,0,40
440,2013-07-08 01:10:22,1373245822,55.22832,-9.85504,2,2,2013-07-08 01:10:00,1373245800,12.16,0,11,8,0,55.2334,-9.92499999999998,0,44
441,2013-07-08 01:20:28,1373246428,55.22326,-9.91696,3,2,2013-07-08 01:20:00,1373246400,12.08,0,11,11,0,55.2328,-9.92319999999998,0,48
442,2013-07-08 01:30:21,1373247021,55.22832,-9.85504,2,1,2013-07-08 01:30:00,1373247000,12.04,0,11,17,0,55.2322,-9.9212,0,44
443,2013-07-08 01:40:23,1373247623,55.22832,-9.85504,2,2,2013-07-08 01:40:00,1373247600,12.04,0,11,9,0,55.2314,-9.91919999999999,0,40
444,2013-07-08 01:50:25,1373248225,55.22832,-9.85504,3,6,2013-07-08 01:50:00,1373248200,11.96,0,11,12,0,55.2308,-9.91719999999998,0,40
445,2013-07-08 02:00:33,1373248833,55.1942,-9.90615,8,2,2013-07-08 02:00:00,1373248800,11.96,0,11,15,0,55.2304,-9.91659999999999,0,40
446,2013-07-08 02:10:22,1373249422,55.22832,-9.85504,4,2,2013-07-08 02:10:00,1373249400,11.96,0,11,22,0,55.2306,-9.91659999999999,0,40
447,2013-07-08 02:20:24,1373250024,55.2338,-9.41064,70,1,2013-07-08 02:20:00,1373250000,11.96,0,11,12,0,55.2304,-9.91639999999998,0,32
448,2013-07-08 02:30:21,1373250621,55.16382,-11.69149,133,1,2013-07-08 02:30:00,1373250600,11.96,0,11,12,0,55.2298,-9.91479999999999,0,32
449,2013-07-08 02:40:22,1373251222,55.13794,-13.82302,258,2,2013-07-08 02:40:00,1373251200,11.96,0,11,9,0,55.2292,-9.9128,0,32
450,2013-07-08 02:50:23,1373251823,55.22832,-9.85504,2,2,2013-07-08 02:50:00,1373251800,12.04,0,11,11,0,55.2284,-9.91059999999999,0,36
451,2013-07-08 03:00:22,1373252422,55.25741,-9.86581,3,3,2013-07-08 03:00:00,1373252400,12.04,0,11,12,0,55.2276,-9.90859999999998,0,40
452,2013-07-08 03:10:25,1373253025,55.22326,-9.91696,2,3,2013-07-08 03:10:00,1373253000,12.04,0,11,11,0,55.2268,-9.9066,0,40
453,2013-07-08 03:20:22,1373253622,55.22326,-9.91696,2,3,2013-07-08 03:20:00,1373253600,12.04,0,11,15,0,55.226,-9.90439999999998,0,40
454,2013-07-08 03:30:22,1373254222,55.22326,-9.91696,2,1,2013-07-08 03:30:00,1373254200,12.08,0,11,12,0,55.225,-9.89159999999998,0,40
455,2013-07-08 03:40:24,1373254824,55.22326,-9.91696,2,2,2013-07-08 03:40:00,1373254800,12.28,0,11,11,0,55.2332,-9.8732,0,44
456,2013-07-08 03:50:21,1373255421,55.25234,-9.92779,2,2,2013-07-08 03:50:00,1373255400,12.28,0,11,14,0,55.2336,-9.875,0,48
457,2013-07-08 04:00:21,1373256021,55.25234,-9.92779,4,1,2013-07-08 04:00:00,1373256000,12.28,0,11,10,0,55.2344,-9.8768,0,48
458,2013-07-08 04:10:22,1373256622,55.25741,-9.86581,8,3,2013-07-08 04:10:00,1373256600,12.4,0,11,11,0,55.2354,-9.87860000000001,0,48
459,2013-07-08 04:20:20,1373257220,55.22408,-9.53465,80,2,2013-07-08 04:20:00,1373257200,12.4,0,11,13,0,55.2362,-9.88059999999999,0,44
460,2013-07-08 04:30:22,1373257822,55.16304,-10.73146,80,2,2013-07-08 04:30:00,1373257800,12.48,0,11,9,0,55.2372,-9.88239999999999,0,48
461,2013-07-08 04:40:21,1373258421,55.09642,-12.83484,205,2,2013-07-08 04:40:00,1373258400,12.52,0,11,11,0,55.238,-9.88419999999999,0,40
462,2013-07-08 04:50:22,1373259022,55.25234,-9.92779,4,2,2013-07-08 04:50:00,1373259000,12.6,0,11,10,0,55.239,-9.8862,0,40
463,2013-07-08 05:00:22,1373259622,55.22832,-9.85504,3,2,2013-07-08 05:00:00,1373259600,12.68,0,11,11,0,55.2398,-9.88800000000001,0,40
464,2013-07-08 05:10:19,1373260219,55.22832,-9.85504,2,2,2013-07-08 05:10:00,1373260200,12.68,0,11,11,0,55.2408,-9.88999999999999,0,36
465,2013-07-08 05:20:20,1373260820,55.22832,-9.85504,1,2,2013-07-08 05:20:00,1373260800,12.68,0,11,8,0,55.2416,-9.89179999999999,0,44
466,2013-07-08 05:30:22,1373261422,55.22832,-9.85504,2,2,2013-07-08 05:30:00,1373261400,12.72,0,10.8,9,0,55.2424,-9.89359999999999,0,44
467,2013-07-08 05:40:24,1373262024,55.25741,-9.86581,3,2,2013-07-08 05:40:00,1373262000,12.8,0,10.8,12,0,55.2434,-9.8954,0,32
468,2013-07-08 05:50:22,1373262622,55.27788,-9.86581,4,1,2013-07-08 05:50:00,1373262600,12.8,0,10.8,15,0,55.2442,-9.8972,0,44
469,2013-07-08 06:00:30,1373263230,55.22326,-9.91696,2,1,2013-07-08 06:00:00,1373263200,12.8,0,10.8,11,0,55.2452,-9.89919999999998,0,52
470,2013-07-08 06:10:21,1373263821,55.21816,-9.97886,2,2,2013-07-08 06:10:00,1373263800,12.8,0,10.8,20,0,55.246,-9.90099999999998,0,44
471,2013-07-08 06:20:19,1373264419,55.4772,-6.08853,254,1,2013-07-08 06:20:00,1373264400,12.84,0,10.8,12,0,55.247,-9.90279999999998,0,48
472,2013-07-08 06:30:22,1373265022,55.31108,-8.21921,125,1,2013-07-08 06:30:00,1373265000,13.12,0,10.8,9,0,55.2476,-9.90379999999999,0,40
473,2013-07-08 06:40:20,1373265620,55.22889,-10.55787,81,1,2013-07-08 06:40:00,1373265600,13.92,0,10.8,12,0,55.2496,-9.90279999999998,0,48
474,2013-07-08 06:50:22,1373266222,55.25441,-12.49468,181,2,2013-07-08 06:50:00,1373266200,13.8,0,10.8,10,0,55.2496,-9.9016,0,52
475,2013-07-08 07:02:39,1373266959,55.25234,-9.92779,3,1,2013-07-08 07:00:00,1373266800,13.8,0,10.8,13,0,55.2486,-9.8998,0,48
476,2013-07-08 07:10:22,1373267422,55.22326,-9.91696,2,1,2013-07-08 07:10:00,1373267400,13.84,0,10.8,149,0,55.2478,-9.898,0,44
477,2013-07-08 07:20:22,1373268022,55.25234,-9.92779,2,1,2013-07-08 07:20:00,1373268000,13.84,0,10.8,11,0,55.2464,-9.89519999999999,0,44
478,2013-07-08 07:30:35,1373268635,55.25234,-9.92779,3,2,2013-07-08 07:30:00,1373268600,13.92,0,10.8,11,0,55.2448,-9.89179999999999,0,40
479,2013-07-08 07:40:22,1373269222,55.25234,-9.92779,4,1,2013-07-08 07:40:00,1373269200,14.04,0,10.8,25,0,55.2432,-9.88839999999999,0,36
480,2013-07-08 07:50:19,1373269819,55.22832,-9.85504,2,1,2013-07-08 07:50:00,1373269800,14.24,0,10.8,11,0,55.2422,-9.8862,0,36
481,2013-07-08 08:00:22,1373270422,55.22832,-9.85504,2,1,2013-07-08 08:00:00,1373270400,14.36,0,10.8,8,0,55.2422,-9.8862,0,40
482,2013-07-08 08:10:21,1373271021,55.22832,-9.85504,11,1,2013-07-08 08:10:00,1373271000,14.36,0,10.8,13,0,55.241,-9.8836,0,40
483,2013-07-08 08:20:21,1373271621,55.56792,-5.21167,308,1,2013-07-08 08:20:00,1373271600,14.44,0,10.8,10,0,55.2398,-9.881,0,44
484,2013-07-08 08:30:21,1373272221,55.33181,-7.90716,144,1,2013-07-08 08:30:00,1373272200,14.72,0,10.8,9,0,55.2384,-9.8784,0,44
485,2013-07-08 08:40:32,1373272832,55.20268,-10.16442,70,1,2013-07-08 08:40:00,1373272800,14.8,0,10.8,9,0,55.2368,-9.87539999999998,0,36
486,2013-07-08 08:50:21,1373273421,55.14588,-12.27011,165,1,2013-07-08 08:50:00,1373273400,14.92,0,10.8,20,0,55.2354,-9.87219999999999,0,36
487,2013-07-08 09:00:21,1373274021,55.14291,-14.79791,323,1,2013-07-08 09:00:00,1373274000,15,0,10.8,9,0,55.2342,-9.87119999999999,0,36
488,2013-07-08 09:10:22,1373274622,55.22832,-9.85504,2,2,2013-07-08 09:10:00,1373274600,15,0,10.8,9,0,55.2356,-9.874,0,32
489,2013-07-08 09:20:20,1373275220,55.22832,-9.85504,3,1,2013-07-08 09:20:00,1373275200,15,0,10.8,12,0,55.237,-9.87699999999998,0,32